Index of /20260414/WXO-DD/model_gdps/15km/12/009
Name Last modified Size Description
Parent Directory -
20260414T12Z_MSC_GDPS_AbsoluteVorticity_IsbL-0200_LatLon0.15_PT009H.grib2 2026-04-14 16:03 1.2M
20260414T12Z_MSC_GDPS_AbsoluteVorticity_IsbL-0250_LatLon0.15_PT009H.grib2 2026-04-14 16:03 1.3M
20260414T12Z_MSC_GDPS_AbsoluteVorticity_IsbL-0500_LatLon0.15_PT009H.grib2 2026-04-14 16:03 1.2M
20260414T12Z_MSC_GDPS_AbsoluteVorticity_IsbL-0700_LatLon0.15_PT009H.grib2 2026-04-14 16:03 1.3M
20260414T12Z_MSC_GDPS_AbsoluteVorticity_IsbL-0850_LatLon0.15_PT009H.grib2 2026-04-14 16:03 1.6M
20260414T12Z_MSC_GDPS_AirTemp_AGL-120m_LatLon0.15_PT009H.grib2 2026-04-14 16:03 912K
20260414T12Z_MSC_GDPS_AirTemp_AGL-2m_LatLon0.15_PT009H.grib2 2026-04-14 16:03 1.0M
20260414T12Z_MSC_GDPS_AirTemp_AGL-40m_LatLon0.15_PT009H.grib2 2026-04-14 16:03 936K
20260414T12Z_MSC_GDPS_AirTemp_AGL-80m_LatLon0.15_PT009H.grib2 2026-04-14 16:03 923K
20260414T12Z_MSC_GDPS_AirTemp_IsbL-0001_LatLon0.15_PT009H.grib2 2026-04-14 16:03 701K
20260414T12Z_MSC_GDPS_AirTemp_IsbL-0005_LatLon0.15_PT009H.grib2 2026-04-14 16:03 740K
20260414T12Z_MSC_GDPS_AirTemp_IsbL-0010_LatLon0.15_PT009H.grib2 2026-04-14 16:03 757K
20260414T12Z_MSC_GDPS_AirTemp_IsbL-0020_LatLon0.15_PT009H.grib2 2026-04-14 16:03 696K
20260414T12Z_MSC_GDPS_AirTemp_IsbL-0030_LatLon0.15_PT009H.grib2 2026-04-14 16:03 747K
20260414T12Z_MSC_GDPS_AirTemp_IsbL-0050_LatLon0.15_PT009H.grib2 2026-04-14 16:03 818K
20260414T12Z_MSC_GDPS_AirTemp_IsbL-0100_LatLon0.15_PT009H.grib2 2026-04-14 16:03 943K
20260414T12Z_MSC_GDPS_AirTemp_IsbL-0150_LatLon0.15_PT009H.grib2 2026-04-14 16:03 964K
20260414T12Z_MSC_GDPS_AirTemp_IsbL-0175_LatLon0.15_PT009H.grib2 2026-04-14 16:03 954K
20260414T12Z_MSC_GDPS_AirTemp_IsbL-0200_LatLon0.15_PT009H.grib2 2026-04-14 16:03 965K
20260414T12Z_MSC_GDPS_AirTemp_IsbL-0225_LatLon0.15_PT009H.grib2 2026-04-14 16:03 1.0M
20260414T12Z_MSC_GDPS_AirTemp_IsbL-0250_LatLon0.15_PT009H.grib2 2026-04-14 16:03 1.0M
20260414T12Z_MSC_GDPS_AirTemp_IsbL-0275_LatLon0.15_PT009H.grib2 2026-04-14 16:03 1.0M
20260414T12Z_MSC_GDPS_AirTemp_IsbL-0300_LatLon0.15_PT009H.grib2 2026-04-14 16:03 957K
20260414T12Z_MSC_GDPS_AirTemp_IsbL-0350_LatLon0.15_PT009H.grib2 2026-04-14 16:03 934K
20260414T12Z_MSC_GDPS_AirTemp_IsbL-0400_LatLon0.15_PT009H.grib2 2026-04-14 16:03 946K
20260414T12Z_MSC_GDPS_AirTemp_IsbL-0450_LatLon0.15_PT009H.grib2 2026-04-14 16:03 966K
20260414T12Z_MSC_GDPS_AirTemp_IsbL-0500_LatLon0.15_PT009H.grib2 2026-04-14 16:03 1.0M
20260414T12Z_MSC_GDPS_AirTemp_IsbL-0550_LatLon0.15_PT009H.grib2 2026-04-14 16:03 1.0M
20260414T12Z_MSC_GDPS_AirTemp_IsbL-0600_LatLon0.15_PT009H.grib2 2026-04-14 16:03 896K
20260414T12Z_MSC_GDPS_AirTemp_IsbL-0650_LatLon0.15_PT009H.grib2 2026-04-14 16:03 923K
20260414T12Z_MSC_GDPS_AirTemp_IsbL-0700_LatLon0.15_PT009H.grib2 2026-04-14 16:03 950K
20260414T12Z_MSC_GDPS_AirTemp_IsbL-0750_LatLon0.15_PT009H.grib2 2026-04-14 16:03 1.0M
20260414T12Z_MSC_GDPS_AirTemp_IsbL-0800_LatLon0.15_PT009H.grib2 2026-04-14 16:03 1.1M
20260414T12Z_MSC_GDPS_AirTemp_IsbL-0850_LatLon0.15_PT009H.grib2 2026-04-14 16:03 1.1M
20260414T12Z_MSC_GDPS_AirTemp_IsbL-0875_LatLon0.15_PT009H.grib2 2026-04-14 16:03 1.1M
20260414T12Z_MSC_GDPS_AirTemp_IsbL-0900_LatLon0.15_PT009H.grib2 2026-04-14 16:03 1.1M
20260414T12Z_MSC_GDPS_AirTemp_IsbL-0925_LatLon0.15_PT009H.grib2 2026-04-14 16:03 1.1M
20260414T12Z_MSC_GDPS_AirTemp_IsbL-0950_LatLon0.15_PT009H.grib2 2026-04-14 16:03 1.1M
20260414T12Z_MSC_GDPS_AirTemp_IsbL-0970_LatLon0.15_PT009H.grib2 2026-04-14 16:03 1.2M
20260414T12Z_MSC_GDPS_AirTemp_IsbL-0985_LatLon0.15_PT009H.grib2 2026-04-14 16:03 1.1M
20260414T12Z_MSC_GDPS_AirTemp_IsbL-1000_LatLon0.15_PT009H.grib2 2026-04-14 16:03 1.1M
20260414T12Z_MSC_GDPS_AirTemp_IsbL-1015_LatLon0.15_PT009H.grib2 2026-04-14 16:03 1.1M
20260414T12Z_MSC_GDPS_Albedo_Sfc_LatLon0.15_PT009H.grib2 2026-04-14 16:03 245K
20260414T12Z_MSC_GDPS_CAPE_Sfc_LatLon0.15_PT009H.grib2 2026-04-14 16:03 3.8M
20260414T12Z_MSC_GDPS_CIN_Sfc_LatLon0.15_PT009H.grib2 2026-04-14 16:03 2.9M
20260414T12Z_MSC_GDPS_CloudWater_EAtm_LatLon0.15_PT009H.grib2 2026-04-14 16:03 522K
20260414T12Z_MSC_GDPS_ConvectivePrecip-Accum_Sfc_LatLon0.15_PT009H.grib2 2026-04-14 16:03 1.7M
20260414T12Z_MSC_GDPS_DewPointDepression_AGL-2m_LatLon0.15_PT009H.grib2 2026-04-14 16:03 757K
20260414T12Z_MSC_GDPS_DewPointDepression_IsbL-0010_LatLon0.15_PT009H.grib2 2026-04-14 16:03 3.8K
20260414T12Z_MSC_GDPS_DewPointDepression_IsbL-0020_LatLon0.15_PT009H.grib2 2026-04-14 16:03 47K
20260414T12Z_MSC_GDPS_DewPointDepression_IsbL-0030_LatLon0.15_PT009H.grib2 2026-04-14 16:03 67K
20260414T12Z_MSC_GDPS_DewPointDepression_IsbL-0050_LatLon0.15_PT009H.grib2 2026-04-14 16:03 356K
20260414T12Z_MSC_GDPS_DewPointDepression_IsbL-0100_LatLon0.15_PT009H.grib2 2026-04-14 16:03 371K
20260414T12Z_MSC_GDPS_DewPointDepression_IsbL-0150_LatLon0.15_PT009H.grib2 2026-04-14 16:03 458K
20260414T12Z_MSC_GDPS_DewPointDepression_IsbL-0175_LatLon0.15_PT009H.grib2 2026-04-14 16:03 530K
20260414T12Z_MSC_GDPS_DewPointDepression_IsbL-0200_LatLon0.15_PT009H.grib2 2026-04-14 16:03 625K
20260414T12Z_MSC_GDPS_DewPointDepression_IsbL-0225_LatLon0.15_PT009H.grib2 2026-04-14 16:03 772K
20260414T12Z_MSC_GDPS_DewPointDepression_IsbL-0250_LatLon0.15_PT009H.grib2 2026-04-14 16:03 886K
20260414T12Z_MSC_GDPS_DewPointDepression_IsbL-0275_LatLon0.15_PT009H.grib2 2026-04-14 16:03 907K
20260414T12Z_MSC_GDPS_DewPointDepression_IsbL-0300_LatLon0.15_PT009H.grib2 2026-04-14 16:03 943K
20260414T12Z_MSC_GDPS_DewPointDepression_IsbL-0350_LatLon0.15_PT009H.grib2 2026-04-14 16:03 1.0M
20260414T12Z_MSC_GDPS_DewPointDepression_IsbL-0400_LatLon0.15_PT009H.grib2 2026-04-14 16:03 1.0M
20260414T12Z_MSC_GDPS_DewPointDepression_IsbL-0450_LatLon0.15_PT009H.grib2 2026-04-14 16:03 1.0M
20260414T12Z_MSC_GDPS_DewPointDepression_IsbL-0500_LatLon0.15_PT009H.grib2 2026-04-14 16:03 1.0M
20260414T12Z_MSC_GDPS_DewPointDepression_IsbL-0550_LatLon0.15_PT009H.grib2 2026-04-14 16:03 1.1M
20260414T12Z_MSC_GDPS_DewPointDepression_IsbL-0600_LatLon0.15_PT009H.grib2 2026-04-14 16:03 1.1M
20260414T12Z_MSC_GDPS_DewPointDepression_IsbL-0650_LatLon0.15_PT009H.grib2 2026-04-14 16:03 1.1M
20260414T12Z_MSC_GDPS_DewPointDepression_IsbL-0700_LatLon0.15_PT009H.grib2 2026-04-14 16:03 1.1M
20260414T12Z_MSC_GDPS_DewPointDepression_IsbL-0750_LatLon0.15_PT009H.grib2 2026-04-14 16:03 1.1M
20260414T12Z_MSC_GDPS_DewPointDepression_IsbL-0800_LatLon0.15_PT009H.grib2 2026-04-14 16:03 1.1M
20260414T12Z_MSC_GDPS_DewPointDepression_IsbL-0850_LatLon0.15_PT009H.grib2 2026-04-14 16:03 1.1M
20260414T12Z_MSC_GDPS_DewPointDepression_IsbL-0875_LatLon0.15_PT009H.grib2 2026-04-14 16:03 1.1M
20260414T12Z_MSC_GDPS_DewPointDepression_IsbL-0900_LatLon0.15_PT009H.grib2 2026-04-14 16:03 1.0M
20260414T12Z_MSC_GDPS_DewPointDepression_IsbL-0925_LatLon0.15_PT009H.grib2 2026-04-14 16:03 1.0M
20260414T12Z_MSC_GDPS_DewPointDepression_IsbL-0950_LatLon0.15_PT009H.grib2 2026-04-14 16:03 1.0M
20260414T12Z_MSC_GDPS_DewPointDepression_IsbL-0970_LatLon0.15_PT009H.grib2 2026-04-14 16:03 1.0M
20260414T12Z_MSC_GDPS_DewPointDepression_IsbL-0985_LatLon0.15_PT009H.grib2 2026-04-14 16:03 1.0M
20260414T12Z_MSC_GDPS_DewPointDepression_IsbL-1000_LatLon0.15_PT009H.grib2 2026-04-14 16:03 1.0M
20260414T12Z_MSC_GDPS_DewPointDepression_IsbL-1015_LatLon0.15_PT009H.grib2 2026-04-14 16:03 919K
20260414T12Z_MSC_GDPS_DewPoint_AGL-2m_LatLon0.15_PT009H.grib2 2026-04-14 16:03 611K
20260414T12Z_MSC_GDPS_DownwardLongwaveRadiationFlux-Accum_Sfc_LatLon0.15_PT009H.grib2 2026-04-14 16:03 938K
20260414T12Z_MSC_GDPS_DownwardShortwaveRadiationFlux-Accum_NTAtm_LatLon0.15_PT009H.grib2 2026-04-14 16:03 307K
20260414T12Z_MSC_GDPS_DownwardShortwaveRadiationFlux-Accum_Sfc_LatLon0.15_PT009H.grib2 2026-04-14 16:03 763K
20260414T12Z_MSC_GDPS_FreezingRain-Accum1h_Sfc_LatLon0.15_PT009H.grib2 2026-04-14 16:03 26K
20260414T12Z_MSC_GDPS_FreezingRain-Accum3h_Sfc_LatLon0.15_PT009H.grib2 2026-04-14 16:03 34K
20260414T12Z_MSC_GDPS_FreezingRain-Accum_Sfc_LatLon0.15_PT009H.grib2 2026-04-14 16:03 87K
20260414T12Z_MSC_GDPS_GeopotentialHeight_IsbL-0001_LatLon0.15_PT009H.grib2 2026-04-14 16:03 538K
20260414T12Z_MSC_GDPS_GeopotentialHeight_IsbL-0005_LatLon0.15_PT009H.grib2 2026-04-14 16:03 446K
20260414T12Z_MSC_GDPS_GeopotentialHeight_IsbL-0010_LatLon0.15_PT009H.grib2 2026-04-14 16:03 583K
20260414T12Z_MSC_GDPS_GeopotentialHeight_IsbL-0020_LatLon0.15_PT009H.grib2 2026-04-14 16:03 581K
20260414T12Z_MSC_GDPS_GeopotentialHeight_IsbL-0030_LatLon0.15_PT009H.grib2 2026-04-14 16:03 583K
20260414T12Z_MSC_GDPS_GeopotentialHeight_IsbL-0050_LatLon0.15_PT009H.grib2 2026-04-14 16:03 577K
20260414T12Z_MSC_GDPS_GeopotentialHeight_IsbL-0100_LatLon0.15_PT009H.grib2 2026-04-14 16:03 612K
20260414T12Z_MSC_GDPS_GeopotentialHeight_IsbL-0150_LatLon0.15_PT009H.grib2 2026-04-14 16:03 632K
20260414T12Z_MSC_GDPS_GeopotentialHeight_IsbL-0175_LatLon0.15_PT009H.grib2 2026-04-14 16:03 635K
20260414T12Z_MSC_GDPS_GeopotentialHeight_IsbL-0200_LatLon0.15_PT009H.grib2 2026-04-14 16:03 639K
20260414T12Z_MSC_GDPS_GeopotentialHeight_IsbL-0225_LatLon0.15_PT009H.grib2 2026-04-14 16:03 635K
20260414T12Z_MSC_GDPS_GeopotentialHeight_IsbL-0250_LatLon0.15_PT009H.grib2 2026-04-14 16:03 640K
20260414T12Z_MSC_GDPS_GeopotentialHeight_IsbL-0275_LatLon0.15_PT009H.grib2 2026-04-14 16:03 642K
20260414T12Z_MSC_GDPS_GeopotentialHeight_IsbL-0300_LatLon0.15_PT009H.grib2 2026-04-14 16:03 634K
20260414T12Z_MSC_GDPS_GeopotentialHeight_IsbL-0350_LatLon0.15_PT009H.grib2 2026-04-14 16:03 630K
20260414T12Z_MSC_GDPS_GeopotentialHeight_IsbL-0400_LatLon0.15_PT009H.grib2 2026-04-14 16:03 618K
20260414T12Z_MSC_GDPS_GeopotentialHeight_IsbL-0450_LatLon0.15_PT009H.grib2 2026-04-14 16:03 538K
20260414T12Z_MSC_GDPS_GeopotentialHeight_IsbL-0500_LatLon0.15_PT009H.grib2 2026-04-14 16:03 527K
20260414T12Z_MSC_GDPS_GeopotentialHeight_IsbL-0550_LatLon0.15_PT009H.grib2 2026-04-14 16:03 523K
20260414T12Z_MSC_GDPS_GeopotentialHeight_IsbL-0600_LatLon0.15_PT009H.grib2 2026-04-14 16:03 686K
20260414T12Z_MSC_GDPS_GeopotentialHeight_IsbL-0650_LatLon0.15_PT009H.grib2 2026-04-14 16:03 683K
20260414T12Z_MSC_GDPS_GeopotentialHeight_IsbL-0700_LatLon0.15_PT009H.grib2 2026-04-14 16:03 680K
20260414T12Z_MSC_GDPS_GeopotentialHeight_IsbL-0750_LatLon0.15_PT009H.grib2 2026-04-14 16:03 691K
20260414T12Z_MSC_GDPS_GeopotentialHeight_IsbL-0800_LatLon0.15_PT009H.grib2 2026-04-14 16:03 697K
20260414T12Z_MSC_GDPS_GeopotentialHeight_IsbL-0850_LatLon0.15_PT009H.grib2 2026-04-14 16:03 709K
20260414T12Z_MSC_GDPS_GeopotentialHeight_IsbL-0875_LatLon0.15_PT009H.grib2 2026-04-14 16:03 714K
20260414T12Z_MSC_GDPS_GeopotentialHeight_IsbL-0900_LatLon0.15_PT009H.grib2 2026-04-14 16:03 720K
20260414T12Z_MSC_GDPS_GeopotentialHeight_IsbL-0925_LatLon0.15_PT009H.grib2 2026-04-14 16:03 732K
20260414T12Z_MSC_GDPS_GeopotentialHeight_IsbL-0950_LatLon0.15_PT009H.grib2 2026-04-14 16:03 740K
20260414T12Z_MSC_GDPS_GeopotentialHeight_IsbL-0970_LatLon0.15_PT009H.grib2 2026-04-14 16:03 751K
20260414T12Z_MSC_GDPS_GeopotentialHeight_IsbL-0985_LatLon0.15_PT009H.grib2 2026-04-14 16:03 585K
20260414T12Z_MSC_GDPS_GeopotentialHeight_IsbL-1000_LatLon0.15_PT009H.grib2 2026-04-14 16:03 599K
20260414T12Z_MSC_GDPS_GeopotentialHeight_IsbL-1015_LatLon0.15_PT009H.grib2 2026-04-14 16:03 616K
20260414T12Z_MSC_GDPS_Humidex_Sfc_LatLon0.15_PT009H.grib2 2026-04-14 16:03 5.3M
20260414T12Z_MSC_GDPS_IcePellets-Accum1h_Sfc_LatLon0.15_PT009H.grib2 2026-04-14 16:03 5.8K
20260414T12Z_MSC_GDPS_IcePellets-Accum3h_Sfc_LatLon0.15_PT009H.grib2 2026-04-14 16:03 6.5K
20260414T12Z_MSC_GDPS_IcePellets-Accum_Sfc_LatLon0.15_PT009H.grib2 2026-04-14 16:03 18K
20260414T12Z_MSC_GDPS_KIndex_Sfc_LatLon0.15_PT009H.grib2 2026-04-14 16:03 6.3M
20260414T12Z_MSC_GDPS_LatentHeatNetFlux_Sfc_LatLon0.15_PT009H.grib2 2026-04-14 16:03 491K
20260414T12Z_MSC_GDPS_LiftedIndex-MU-VT_IsbL-0500_LatLon0.15_PT009H.grib2 2026-04-14 16:03 5.4M
20260414T12Z_MSC_GDPS_NetLongwaveRadiationFlux-Accum_Sfc_LatLon0.15_PT009H.grib2 2026-04-14 16:03 1.2M
20260414T12Z_MSC_GDPS_NetShortwaveRadiationFlux-Accum_Sfc_LatLon0.15_PT009H.grib2 2026-04-14 16:03 726K
20260414T12Z_MSC_GDPS_O3MixingRatio_LatLon0.15_PT009H.grib2 2026-04-14 16:54 2.1M
20260414T12Z_MSC_GDPS_O3_EAtm_LatLon0.15_PT009H.grib2 2026-04-14 16:54 2.1M
20260414T12Z_MSC_GDPS_PlanetaryBoundaryLayerHeight_Sfc_LatLon0.15_PT009H.grib2 2026-04-14 16:03 2.4M
20260414T12Z_MSC_GDPS_Precip-Accum1h_Sfc_LatLon0.15_PT009H.grib2 2026-04-14 16:03 3.1M
20260414T12Z_MSC_GDPS_Precip-Accum3h_Sfc_LatLon0.15_PT009H.grib2 2026-04-14 16:03 3.3M
20260414T12Z_MSC_GDPS_Precip-Accum_Sfc_LatLon0.15_PT009H.grib2 2026-04-14 16:03 3.8M
20260414T12Z_MSC_GDPS_PrecipRate_Sfc_LatLon0.15_PT009H.grib2 2026-04-14 16:03 2.8M
20260414T12Z_MSC_GDPS_PrecipType-Instant_Sfc_LatLon0.15_PT009H.grib2 2026-04-14 16:03 1.5M
20260414T12Z_MSC_GDPS_Pressure_MSL_LatLon0.15_PT009H.grib2 2026-04-14 16:03 822K
20260414T12Z_MSC_GDPS_Pressure_PVU-1.5_LatLon0.15_PT009H.grib2 2026-04-14 16:03 5.7M
20260414T12Z_MSC_GDPS_Pressure_PVU-1_LatLon0.15_PT009H.grib2 2026-04-14 16:03 6.0M
20260414T12Z_MSC_GDPS_Pressure_PVU-2_LatLon0.15_PT009H.grib2 2026-04-14 16:03 5.9M
20260414T12Z_MSC_GDPS_Pressure_Sfc_LatLon0.15_PT009H.grib2 2026-04-14 16:03 1.1M
20260414T12Z_MSC_GDPS_RadiativeTemp_Sfc_LatLon0.15_PT009H.grib2 2026-04-14 16:03 662K
20260414T12Z_MSC_GDPS_Rain-Accum1h_Sfc_LatLon0.15_PT009H.grib2 2026-04-14 16:03 1.4M
20260414T12Z_MSC_GDPS_Rain-Accum3h_Sfc_LatLon0.15_PT009H.grib2 2026-04-14 16:03 1.6M
20260414T12Z_MSC_GDPS_Rain-Accum_Sfc_LatLon0.15_PT009H.grib2 2026-04-14 16:03 2.7M
20260414T12Z_MSC_GDPS_RelativeHumidity_AGL-2m_LatLon0.15_PT009H.grib2 2026-04-14 16:03 1.0M
20260414T12Z_MSC_GDPS_RelativeHumidity_IsbL-0010_LatLon0.15_PT009H.grib2 2026-04-14 16:03 250K
20260414T12Z_MSC_GDPS_RelativeHumidity_IsbL-0020_LatLon0.15_PT009H.grib2 2026-04-14 16:03 400K
20260414T12Z_MSC_GDPS_RelativeHumidity_IsbL-0030_LatLon0.15_PT009H.grib2 2026-04-14 16:03 530K
20260414T12Z_MSC_GDPS_RelativeHumidity_IsbL-0050_LatLon0.15_PT009H.grib2 2026-04-14 16:03 324K
20260414T12Z_MSC_GDPS_RelativeHumidity_IsbL-0100_LatLon0.15_PT009H.grib2 2026-04-14 16:03 494K
20260414T12Z_MSC_GDPS_RelativeHumidity_IsbL-0150_LatLon0.15_PT009H.grib2 2026-04-14 16:03 648K
20260414T12Z_MSC_GDPS_RelativeHumidity_IsbL-0175_LatLon0.15_PT009H.grib2 2026-04-14 16:03 764K
20260414T12Z_MSC_GDPS_RelativeHumidity_IsbL-0200_LatLon0.15_PT009H.grib2 2026-04-14 16:03 675K
20260414T12Z_MSC_GDPS_RelativeHumidity_IsbL-0225_LatLon0.15_PT009H.grib2 2026-04-14 16:03 771K
20260414T12Z_MSC_GDPS_RelativeHumidity_IsbL-0250_LatLon0.15_PT009H.grib2 2026-04-14 16:03 864K
20260414T12Z_MSC_GDPS_RelativeHumidity_IsbL-0275_LatLon0.15_PT009H.grib2 2026-04-14 16:03 891K
20260414T12Z_MSC_GDPS_RelativeHumidity_IsbL-0300_LatLon0.15_PT009H.grib2 2026-04-14 16:03 936K
20260414T12Z_MSC_GDPS_RelativeHumidity_IsbL-0350_LatLon0.15_PT009H.grib2 2026-04-14 16:03 963K
20260414T12Z_MSC_GDPS_RelativeHumidity_IsbL-0400_LatLon0.15_PT009H.grib2 2026-04-14 16:03 1.0M
20260414T12Z_MSC_GDPS_RelativeHumidity_IsbL-0450_LatLon0.15_PT009H.grib2 2026-04-14 16:03 1.0M
20260414T12Z_MSC_GDPS_RelativeHumidity_IsbL-0500_LatLon0.15_PT009H.grib2 2026-04-14 16:03 1.0M
20260414T12Z_MSC_GDPS_RelativeHumidity_IsbL-0550_LatLon0.15_PT009H.grib2 2026-04-14 16:03 1.1M
20260414T12Z_MSC_GDPS_RelativeHumidity_IsbL-0600_LatLon0.15_PT009H.grib2 2026-04-14 16:03 1.1M
20260414T12Z_MSC_GDPS_RelativeHumidity_IsbL-0650_LatLon0.15_PT009H.grib2 2026-04-14 16:03 1.1M
20260414T12Z_MSC_GDPS_RelativeHumidity_IsbL-0700_LatLon0.15_PT009H.grib2 2026-04-14 16:03 1.1M
20260414T12Z_MSC_GDPS_RelativeHumidity_IsbL-0750_LatLon0.15_PT009H.grib2 2026-04-14 16:03 1.2M
20260414T12Z_MSC_GDPS_RelativeHumidity_IsbL-0800_LatLon0.15_PT009H.grib2 2026-04-14 16:03 1.2M
20260414T12Z_MSC_GDPS_RelativeHumidity_IsbL-0850_LatLon0.15_PT009H.grib2 2026-04-14 16:03 1.3M
20260414T12Z_MSC_GDPS_RelativeHumidity_IsbL-0875_LatLon0.15_PT009H.grib2 2026-04-14 16:03 1.3M
20260414T12Z_MSC_GDPS_RelativeHumidity_IsbL-0900_LatLon0.15_PT009H.grib2 2026-04-14 16:03 1.3M
20260414T12Z_MSC_GDPS_RelativeHumidity_IsbL-0925_LatLon0.15_PT009H.grib2 2026-04-14 16:03 1.2M
20260414T12Z_MSC_GDPS_RelativeHumidity_IsbL-0950_LatLon0.15_PT009H.grib2 2026-04-14 16:03 1.2M
20260414T12Z_MSC_GDPS_RelativeHumidity_IsbL-0970_LatLon0.15_PT009H.grib2 2026-04-14 16:03 1.2M
20260414T12Z_MSC_GDPS_RelativeHumidity_IsbL-0985_LatLon0.15_PT009H.grib2 2026-04-14 16:03 1.2M
20260414T12Z_MSC_GDPS_RelativeHumidity_IsbL-1000_LatLon0.15_PT009H.grib2 2026-04-14 16:03 1.1M
20260414T12Z_MSC_GDPS_RelativeHumidity_IsbL-1015_LatLon0.15_PT009H.grib2 2026-04-14 16:03 1.1M
20260414T12Z_MSC_GDPS_RelativeVorticity_IsbL-0200_LatLon0.15_PT009H.grib2 2026-04-14 16:03 1.2M
20260414T12Z_MSC_GDPS_RelativeVorticity_IsbL-0250_LatLon0.15_PT009H.grib2 2026-04-14 16:03 1.3M
20260414T12Z_MSC_GDPS_RelativeVorticity_IsbL-0500_LatLon0.15_PT009H.grib2 2026-04-14 16:03 1.2M
20260414T12Z_MSC_GDPS_RelativeVorticity_IsbL-0700_LatLon0.15_PT009H.grib2 2026-04-14 16:03 1.3M
20260414T12Z_MSC_GDPS_RelativeVorticity_IsbL-0850_LatLon0.15_PT009H.grib2 2026-04-14 16:03 1.6M
20260414T12Z_MSC_GDPS_Runoff-Accum_Sfc_LatLon0.15_PT009H.grib2 2026-04-14 16:03 59K
20260414T12Z_MSC_GDPS_SensibleHeatNetFlux_Sfc_LatLon0.15_PT009H.grib2 2026-04-14 16:03 440K
20260414T12Z_MSC_GDPS_ShowalterIndex_IsbL-0500_LatLon0.15_PT009H.grib2 2026-04-14 16:03 6.2M
20260414T12Z_MSC_GDPS_Snow-Accum1h_Sfc_LatLon0.15_PT009H.grib2 2026-04-14 16:03 969K
20260414T12Z_MSC_GDPS_Snow-Accum3h_Sfc_LatLon0.15_PT009H.grib2 2026-04-14 16:03 865K
20260414T12Z_MSC_GDPS_Snow-Accum_Sfc_LatLon0.15_PT009H.grib2 2026-04-14 16:03 1.5M
20260414T12Z_MSC_GDPS_SnowDensity_Sfc_LatLon0.15_PT009H.grib2 2026-04-14 16:03 258K
20260414T12Z_MSC_GDPS_SnowDepth_Sfc_LatLon0.15_PT009H.grib2 2026-04-14 16:03 1.8M
20260414T12Z_MSC_GDPS_SoilTemp_DBS-0to10cm_LatLon0.15_PT009H.grib2 2026-04-14 16:03 496K
20260414T12Z_MSC_GDPS_SoilTemp_Sfc_LatLon0.15_PT009H.grib2 2026-04-14 16:03 577K
20260414T12Z_MSC_GDPS_SoilVolumetricIceContent_Sfc_LatLon0.15_PT009H.grib2 2026-04-14 16:03 226K
20260414T12Z_MSC_GDPS_SoilVolumetricWaterContent_DBS-0to10cm_LatLon0.15_PT009H.grib2 2026-04-14 16:03 552K
20260414T12Z_MSC_GDPS_SoilVolumetricWaterContent_DBS-0to1cm_LatLon0.15_PT009H.grib2 2026-04-14 16:03 646K
20260414T12Z_MSC_GDPS_SpecificHumidity_AGL-120m_LatLon0.15_PT009H.grib2 2026-04-14 16:03 1.1M
20260414T12Z_MSC_GDPS_SpecificHumidity_AGL-2m_LatLon0.15_PT009H.grib2 2026-04-14 16:03 1.2M
20260414T12Z_MSC_GDPS_SpecificHumidity_AGL-40m_LatLon0.15_PT009H.grib2 2026-04-14 16:03 1.1M
20260414T12Z_MSC_GDPS_SpecificHumidity_AGL-80m_LatLon0.15_PT009H.grib2 2026-04-14 16:03 1.1M
20260414T12Z_MSC_GDPS_SpecificHumidity_IsbL-0001_LatLon0.15_PT009H.grib2 2026-04-14 16:03 1.3M
20260414T12Z_MSC_GDPS_SpecificHumidity_IsbL-0005_LatLon0.15_PT009H.grib2 2026-04-14 16:03 1.2M
20260414T12Z_MSC_GDPS_SpecificHumidity_IsbL-0010_LatLon0.15_PT009H.grib2 2026-04-14 16:03 1.4M
20260414T12Z_MSC_GDPS_SpecificHumidity_IsbL-0020_LatLon0.15_PT009H.grib2 2026-04-14 16:03 1.4M
20260414T12Z_MSC_GDPS_SpecificHumidity_IsbL-0030_LatLon0.15_PT009H.grib2 2026-04-14 16:03 1.4M
20260414T12Z_MSC_GDPS_SpecificHumidity_IsbL-0050_LatLon0.15_PT009H.grib2 2026-04-14 16:03 1.4M
20260414T12Z_MSC_GDPS_SpecificHumidity_IsbL-0100_LatLon0.15_PT009H.grib2 2026-04-14 16:03 1.3M
20260414T12Z_MSC_GDPS_SpecificHumidity_IsbL-0150_LatLon0.15_PT009H.grib2 2026-04-14 16:03 1.3M
20260414T12Z_MSC_GDPS_SpecificHumidity_IsbL-0175_LatLon0.15_PT009H.grib2 2026-04-14 16:03 1.3M
20260414T12Z_MSC_GDPS_SpecificHumidity_IsbL-0200_LatLon0.15_PT009H.grib2 2026-04-14 16:03 1.0M
20260414T12Z_MSC_GDPS_SpecificHumidity_IsbL-0225_LatLon0.15_PT009H.grib2 2026-04-14 16:03 1.2M
20260414T12Z_MSC_GDPS_SpecificHumidity_IsbL-0250_LatLon0.15_PT009H.grib2 2026-04-14 16:03 1.2M
20260414T12Z_MSC_GDPS_SpecificHumidity_IsbL-0275_LatLon0.15_PT009H.grib2 2026-04-14 16:03 1.1M
20260414T12Z_MSC_GDPS_SpecificHumidity_IsbL-0300_LatLon0.15_PT009H.grib2 2026-04-14 16:03 1.2M
20260414T12Z_MSC_GDPS_SpecificHumidity_IsbL-0350_LatLon0.15_PT009H.grib2 2026-04-14 16:03 1.2M
20260414T12Z_MSC_GDPS_SpecificHumidity_IsbL-0400_LatLon0.15_PT009H.grib2 2026-04-14 16:03 1.4M
20260414T12Z_MSC_GDPS_SpecificHumidity_IsbL-0450_LatLon0.15_PT009H.grib2 2026-04-14 16:03 1.3M
20260414T12Z_MSC_GDPS_SpecificHumidity_IsbL-0500_LatLon0.15_PT009H.grib2 2026-04-14 16:03 1.5M
20260414T12Z_MSC_GDPS_SpecificHumidity_IsbL-0550_LatLon0.15_PT009H.grib2 2026-04-14 16:03 1.6M
20260414T12Z_MSC_GDPS_SpecificHumidity_IsbL-0600_LatLon0.15_PT009H.grib2 2026-04-14 16:03 1.4M
20260414T12Z_MSC_GDPS_SpecificHumidity_IsbL-0650_LatLon0.15_PT009H.grib2 2026-04-14 16:03 1.5M
20260414T12Z_MSC_GDPS_SpecificHumidity_IsbL-0700_LatLon0.15_PT009H.grib2 2026-04-14 16:03 1.6M
20260414T12Z_MSC_GDPS_SpecificHumidity_IsbL-0750_LatLon0.15_PT009H.grib2 2026-04-14 16:03 1.7M
20260414T12Z_MSC_GDPS_SpecificHumidity_IsbL-0800_LatLon0.15_PT009H.grib2 2026-04-14 16:03 1.8M
20260414T12Z_MSC_GDPS_SpecificHumidity_IsbL-0850_LatLon0.15_PT009H.grib2 2026-04-14 16:03 1.9M
20260414T12Z_MSC_GDPS_SpecificHumidity_IsbL-0875_LatLon0.15_PT009H.grib2 2026-04-14 16:03 1.9M
20260414T12Z_MSC_GDPS_SpecificHumidity_IsbL-0900_LatLon0.15_PT009H.grib2 2026-04-14 16:03 1.6M
20260414T12Z_MSC_GDPS_SpecificHumidity_IsbL-0925_LatLon0.15_PT009H.grib2 2026-04-14 16:03 1.6M
20260414T12Z_MSC_GDPS_SpecificHumidity_IsbL-0950_LatLon0.15_PT009H.grib2 2026-04-14 16:03 1.5M
20260414T12Z_MSC_GDPS_SpecificHumidity_IsbL-0970_LatLon0.15_PT009H.grib2 2026-04-14 16:03 1.5M
20260414T12Z_MSC_GDPS_SpecificHumidity_IsbL-0985_LatLon0.15_PT009H.grib2 2026-04-14 16:03 1.5M
20260414T12Z_MSC_GDPS_SpecificHumidity_IsbL-1000_LatLon0.15_PT009H.grib2 2026-04-14 16:03 1.5M
20260414T12Z_MSC_GDPS_SpecificHumidity_IsbL-1015_LatLon0.15_PT009H.grib2 2026-04-14 16:03 1.4M
20260414T12Z_MSC_GDPS_SpecificHumidity_Sfc_LatLon0.15_PT009H.grib2 2026-04-14 16:03 643K
20260414T12Z_MSC_GDPS_Thickness_IsbL-0850to0700_LatLon0.15_PT009H.grib2 2026-04-14 16:03 467K
20260414T12Z_MSC_GDPS_Thickness_IsbL-1000to0500_LatLon0.15_PT009H.grib2 2026-04-14 16:03 371K
20260414T12Z_MSC_GDPS_Thickness_IsbL-1000to0850_LatLon0.15_PT009H.grib2 2026-04-14 16:03 490K
20260414T12Z_MSC_GDPS_TotalCloudCover_Sfc_LatLon0.15_PT009H.grib2 2026-04-14 16:03 830K
20260414T12Z_MSC_GDPS_TotalTotalsIndex_Sfc_LatLon0.15_PT009H.grib2 2026-04-14 16:03 6.2M
20260414T12Z_MSC_GDPS_UVIndex-ClearSky_Sfc_LatLon0.15_PT009H.grib2 2026-04-14 16:54 1.0M
20260414T12Z_MSC_GDPS_UVIndex_Sfc_LatLon0.15_PT009H.grib2 2026-04-14 16:54 1.5M
20260414T12Z_MSC_GDPS_UpwardLongwaveRadiationFlux_NTAtm_LatLon0.15_PT009H.grib2 2026-04-14 16:03 1.0M
20260414T12Z_MSC_GDPS_VerticalVelocity_IsbL-0200_LatLon0.15_PT009H.grib2 2026-04-14 16:03 919K
20260414T12Z_MSC_GDPS_VerticalVelocity_IsbL-0250_LatLon0.15_PT009H.grib2 2026-04-14 16:03 1.0M
20260414T12Z_MSC_GDPS_VerticalVelocity_IsbL-0500_LatLon0.15_PT009H.grib2 2026-04-14 16:03 1.1M
20260414T12Z_MSC_GDPS_VerticalVelocity_IsbL-0600_LatLon0.15_PT009H.grib2 2026-04-14 16:03 1.1M
20260414T12Z_MSC_GDPS_VerticalVelocity_IsbL-0700_LatLon0.15_PT009H.grib2 2026-04-14 16:03 1.2M
20260414T12Z_MSC_GDPS_VerticalVelocity_IsbL-0850_LatLon0.15_PT009H.grib2 2026-04-14 16:03 1.3M
20260414T12Z_MSC_GDPS_WindChill_Sfc_LatLon0.15_PT009H.grib2 2026-04-14 16:03 5.4M
20260414T12Z_MSC_GDPS_WindDir_AGL-10m_LatLon0.15_PT009H.grib2 2026-04-14 16:03 1.3M
20260414T12Z_MSC_GDPS_WindDir_AGL-120m_LatLon0.15_PT009H.grib2 2026-04-14 16:03 1.4M
20260414T12Z_MSC_GDPS_WindDir_AGL-40m_LatLon0.15_PT009H.grib2 2026-04-14 16:03 1.4M
20260414T12Z_MSC_GDPS_WindDir_AGL-80m_LatLon0.15_PT009H.grib2 2026-04-14 16:03 1.4M
20260414T12Z_MSC_GDPS_WindDir_IsbL-0001_LatLon0.15_PT009H.grib2 2026-04-14 16:03 633K
20260414T12Z_MSC_GDPS_WindDir_IsbL-0005_LatLon0.15_PT009H.grib2 2026-04-14 16:03 814K
20260414T12Z_MSC_GDPS_WindDir_IsbL-0010_LatLon0.15_PT009H.grib2 2026-04-14 16:03 868K
20260414T12Z_MSC_GDPS_WindDir_IsbL-0020_LatLon0.15_PT009H.grib2 2026-04-14 16:03 926K
20260414T12Z_MSC_GDPS_WindDir_IsbL-0030_LatLon0.15_PT009H.grib2 2026-04-14 16:03 897K
20260414T12Z_MSC_GDPS_WindDir_IsbL-0050_LatLon0.15_PT009H.grib2 2026-04-14 16:03 950K
20260414T12Z_MSC_GDPS_WindDir_IsbL-0100_LatLon0.15_PT009H.grib2 2026-04-14 16:03 1.0M
20260414T12Z_MSC_GDPS_WindDir_IsbL-0150_LatLon0.15_PT009H.grib2 2026-04-14 16:03 1.0M
20260414T12Z_MSC_GDPS_WindDir_IsbL-0175_LatLon0.15_PT009H.grib2 2026-04-14 16:03 1.0M
20260414T12Z_MSC_GDPS_WindDir_IsbL-0200_LatLon0.15_PT009H.grib2 2026-04-14 16:03 1.1M
20260414T12Z_MSC_GDPS_WindDir_IsbL-0225_LatLon0.15_PT009H.grib2 2026-04-14 16:03 1.1M
20260414T12Z_MSC_GDPS_WindDir_IsbL-0250_LatLon0.15_PT009H.grib2 2026-04-14 16:03 1.1M
20260414T12Z_MSC_GDPS_WindDir_IsbL-0275_LatLon0.15_PT009H.grib2 2026-04-14 16:03 1.2M
20260414T12Z_MSC_GDPS_WindDir_IsbL-0300_LatLon0.15_PT009H.grib2 2026-04-14 16:03 1.2M
20260414T12Z_MSC_GDPS_WindDir_IsbL-0350_LatLon0.15_PT009H.grib2 2026-04-14 16:03 1.2M
20260414T12Z_MSC_GDPS_WindDir_IsbL-0400_LatLon0.15_PT009H.grib2 2026-04-14 16:03 1.3M
20260414T12Z_MSC_GDPS_WindDir_IsbL-0450_LatLon0.15_PT009H.grib2 2026-04-14 16:03 1.3M
20260414T12Z_MSC_GDPS_WindDir_IsbL-0500_LatLon0.15_PT009H.grib2 2026-04-14 16:03 1.4M
20260414T12Z_MSC_GDPS_WindDir_IsbL-0550_LatLon0.15_PT009H.grib2 2026-04-14 16:03 1.4M
20260414T12Z_MSC_GDPS_WindDir_IsbL-0600_LatLon0.15_PT009H.grib2 2026-04-14 16:03 1.5M
20260414T12Z_MSC_GDPS_WindDir_IsbL-0650_LatLon0.15_PT009H.grib2 2026-04-14 16:03 1.5M
20260414T12Z_MSC_GDPS_WindDir_IsbL-0700_LatLon0.15_PT009H.grib2 2026-04-14 16:03 1.6M
20260414T12Z_MSC_GDPS_WindDir_IsbL-0750_LatLon0.15_PT009H.grib2 2026-04-14 16:03 1.7M
20260414T12Z_MSC_GDPS_WindDir_IsbL-0800_LatLon0.15_PT009H.grib2 2026-04-14 16:03 1.8M
20260414T12Z_MSC_GDPS_WindDir_IsbL-0850_LatLon0.15_PT009H.grib2 2026-04-14 16:03 1.9M
20260414T12Z_MSC_GDPS_WindDir_IsbL-0875_LatLon0.15_PT009H.grib2 2026-04-14 16:03 1.9M
20260414T12Z_MSC_GDPS_WindDir_IsbL-0900_LatLon0.15_PT009H.grib2 2026-04-14 16:03 2.0M
20260414T12Z_MSC_GDPS_WindDir_IsbL-0925_LatLon0.15_PT009H.grib2 2026-04-14 16:03 2.0M
20260414T12Z_MSC_GDPS_WindDir_IsbL-0950_LatLon0.15_PT009H.grib2 2026-04-14 16:03 2.0M
20260414T12Z_MSC_GDPS_WindDir_IsbL-0970_LatLon0.15_PT009H.grib2 2026-04-14 16:03 2.0M
20260414T12Z_MSC_GDPS_WindDir_IsbL-0985_LatLon0.15_PT009H.grib2 2026-04-14 16:03 2.0M
20260414T12Z_MSC_GDPS_WindDir_IsbL-1000_LatLon0.15_PT009H.grib2 2026-04-14 16:03 2.1M
20260414T12Z_MSC_GDPS_WindDir_IsbL-1015_LatLon0.15_PT009H.grib2 2026-04-14 16:03 2.1M
20260414T12Z_MSC_GDPS_WindGust-Max_AGL-10m_LatLon0.15_PT009H.grib2 2026-04-14 16:03 2.2M
20260414T12Z_MSC_GDPS_WindGust-Min_AGL-10m_LatLon0.15_PT009H.grib2 2026-04-14 16:03 2.2M
20260414T12Z_MSC_GDPS_WindGust_AGL-10m_LatLon0.15_PT009H.grib2 2026-04-14 16:03 2.2M
20260414T12Z_MSC_GDPS_WindSpeed_AGL-10m_LatLon0.15_PT009H.grib2 2026-04-14 16:03 1.1M
20260414T12Z_MSC_GDPS_WindSpeed_AGL-120m_LatLon0.15_PT009H.grib2 2026-04-14 16:03 1.3M
20260414T12Z_MSC_GDPS_WindSpeed_AGL-40m_LatLon0.15_PT009H.grib2 2026-04-14 16:03 1.2M
20260414T12Z_MSC_GDPS_WindSpeed_AGL-80m_LatLon0.15_PT009H.grib2 2026-04-14 16:03 1.3M
20260414T12Z_MSC_GDPS_WindSpeed_IsbL-0001_LatLon0.15_PT009H.grib2 2026-04-14 16:03 638K
20260414T12Z_MSC_GDPS_WindSpeed_IsbL-0005_LatLon0.15_PT009H.grib2 2026-04-14 16:03 696K
20260414T12Z_MSC_GDPS_WindSpeed_IsbL-0010_LatLon0.15_PT009H.grib2 2026-04-14 16:03 634K
20260414T12Z_MSC_GDPS_WindSpeed_IsbL-0020_LatLon0.15_PT009H.grib2 2026-04-14 16:03 869K
20260414T12Z_MSC_GDPS_WindSpeed_IsbL-0030_LatLon0.15_PT009H.grib2 2026-04-14 16:03 864K
20260414T12Z_MSC_GDPS_WindSpeed_IsbL-0050_LatLon0.15_PT009H.grib2 2026-04-14 16:03 921K
20260414T12Z_MSC_GDPS_WindSpeed_IsbL-0100_LatLon0.15_PT009H.grib2 2026-04-14 16:03 1.1M
20260414T12Z_MSC_GDPS_WindSpeed_IsbL-0150_LatLon0.15_PT009H.grib2 2026-04-14 16:03 1.0M
20260414T12Z_MSC_GDPS_WindSpeed_IsbL-0175_LatLon0.15_PT009H.grib2 2026-04-14 16:03 1.0M
20260414T12Z_MSC_GDPS_WindSpeed_IsbL-0200_LatLon0.15_PT009H.grib2 2026-04-14 16:03 1.0M
20260414T12Z_MSC_GDPS_WindSpeed_IsbL-0225_LatLon0.15_PT009H.grib2 2026-04-14 16:03 1.1M
20260414T12Z_MSC_GDPS_WindSpeed_IsbL-0250_LatLon0.15_PT009H.grib2 2026-04-14 16:03 1.1M
20260414T12Z_MSC_GDPS_WindSpeed_IsbL-0275_LatLon0.15_PT009H.grib2 2026-04-14 16:03 1.1M
20260414T12Z_MSC_GDPS_WindSpeed_IsbL-0300_LatLon0.15_PT009H.grib2 2026-04-14 16:03 1.1M
20260414T12Z_MSC_GDPS_WindSpeed_IsbL-0350_LatLon0.15_PT009H.grib2 2026-04-14 16:03 1.1M
20260414T12Z_MSC_GDPS_WindSpeed_IsbL-0400_LatLon0.15_PT009H.grib2 2026-04-14 16:03 1.1M
20260414T12Z_MSC_GDPS_WindSpeed_IsbL-0450_LatLon0.15_PT009H.grib2 2026-04-14 16:03 1.1M
20260414T12Z_MSC_GDPS_WindSpeed_IsbL-0500_LatLon0.15_PT009H.grib2 2026-04-14 16:03 1.1M
20260414T12Z_MSC_GDPS_WindSpeed_IsbL-0550_LatLon0.15_PT009H.grib2 2026-04-14 16:03 1.1M
20260414T12Z_MSC_GDPS_WindSpeed_IsbL-0600_LatLon0.15_PT009H.grib2 2026-04-14 16:03 1.1M
20260414T12Z_MSC_GDPS_WindSpeed_IsbL-0650_LatLon0.15_PT009H.grib2 2026-04-14 16:03 1.4M
20260414T12Z_MSC_GDPS_WindSpeed_IsbL-0700_LatLon0.15_PT009H.grib2 2026-04-14 16:03 1.5M
20260414T12Z_MSC_GDPS_WindSpeed_IsbL-0750_LatLon0.15_PT009H.grib2 2026-04-14 16:03 1.6M
20260414T12Z_MSC_GDPS_WindSpeed_IsbL-0800_LatLon0.15_PT009H.grib2 2026-04-14 16:03 1.6M
20260414T12Z_MSC_GDPS_WindSpeed_IsbL-0850_LatLon0.15_PT009H.grib2 2026-04-14 16:03 1.7M
20260414T12Z_MSC_GDPS_WindSpeed_IsbL-0875_LatLon0.15_PT009H.grib2 2026-04-14 16:03 1.8M
20260414T12Z_MSC_GDPS_WindSpeed_IsbL-0900_LatLon0.15_PT009H.grib2 2026-04-14 16:03 1.9M
20260414T12Z_MSC_GDPS_WindSpeed_IsbL-0925_LatLon0.15_PT009H.grib2 2026-04-14 16:03 1.9M
20260414T12Z_MSC_GDPS_WindSpeed_IsbL-0950_LatLon0.15_PT009H.grib2 2026-04-14 16:03 1.9M
20260414T12Z_MSC_GDPS_WindSpeed_IsbL-0970_LatLon0.15_PT009H.grib2 2026-04-14 16:03 1.9M
20260414T12Z_MSC_GDPS_WindSpeed_IsbL-0985_LatLon0.15_PT009H.grib2 2026-04-14 16:03 1.9M
20260414T12Z_MSC_GDPS_WindSpeed_IsbL-1000_LatLon0.15_PT009H.grib2 2026-04-14 16:03 1.9M
20260414T12Z_MSC_GDPS_WindSpeed_IsbL-1015_LatLon0.15_PT009H.grib2 2026-04-14 16:03 1.8M
20260414T12Z_MSC_GDPS_WindU_AGL-10m_LatLon0.15_PT009H.grib2 2026-04-14 16:03 1.3M
20260414T12Z_MSC_GDPS_WindU_AGL-120m_LatLon0.15_PT009H.grib2 2026-04-14 16:03 1.0M
20260414T12Z_MSC_GDPS_WindU_AGL-40m_LatLon0.15_PT009H.grib2 2026-04-14 16:03 1.0M
20260414T12Z_MSC_GDPS_WindU_AGL-80m_LatLon0.15_PT009H.grib2 2026-04-14 16:03 1.0M
20260414T12Z_MSC_GDPS_WindU_IsbL-0001_LatLon0.15_PT009H.grib2 2026-04-14 16:03 638K
20260414T12Z_MSC_GDPS_WindU_IsbL-0005_LatLon0.15_PT009H.grib2 2026-04-14 16:03 689K
20260414T12Z_MSC_GDPS_WindU_IsbL-0010_LatLon0.15_PT009H.grib2 2026-04-14 16:03 705K
20260414T12Z_MSC_GDPS_WindU_IsbL-0020_LatLon0.15_PT009H.grib2 2026-04-14 16:03 743K
20260414T12Z_MSC_GDPS_WindU_IsbL-0030_LatLon0.15_PT009H.grib2 2026-04-14 16:03 742K
20260414T12Z_MSC_GDPS_WindU_IsbL-0050_LatLon0.15_PT009H.grib2 2026-04-14 16:03 710K
20260414T12Z_MSC_GDPS_WindU_IsbL-0100_LatLon0.15_PT009H.grib2 2026-04-14 16:03 927K
20260414T12Z_MSC_GDPS_WindU_IsbL-0150_LatLon0.15_PT009H.grib2 2026-04-14 16:03 1.0M
20260414T12Z_MSC_GDPS_WindU_IsbL-0175_LatLon0.15_PT009H.grib2 2026-04-14 16:03 1.0M
20260414T12Z_MSC_GDPS_WindU_IsbL-0200_LatLon0.15_PT009H.grib2 2026-04-14 16:03 1.0M
20260414T12Z_MSC_GDPS_WindU_IsbL-0225_LatLon0.15_PT009H.grib2 2026-04-14 16:03 852K
20260414T12Z_MSC_GDPS_WindU_IsbL-0250_LatLon0.15_PT009H.grib2 2026-04-14 16:03 857K
20260414T12Z_MSC_GDPS_WindU_IsbL-0275_LatLon0.15_PT009H.grib2 2026-04-14 16:03 886K
20260414T12Z_MSC_GDPS_WindU_IsbL-0300_LatLon0.15_PT009H.grib2 2026-04-14 16:03 877K
20260414T12Z_MSC_GDPS_WindU_IsbL-0350_LatLon0.15_PT009H.grib2 2026-04-14 16:03 892K
20260414T12Z_MSC_GDPS_WindU_IsbL-0400_LatLon0.15_PT009H.grib2 2026-04-14 16:03 894K
20260414T12Z_MSC_GDPS_WindU_IsbL-0450_LatLon0.15_PT009H.grib2 2026-04-14 16:03 898K
20260414T12Z_MSC_GDPS_WindU_IsbL-0500_LatLon0.15_PT009H.grib2 2026-04-14 16:03 1.1M
20260414T12Z_MSC_GDPS_WindU_IsbL-0550_LatLon0.15_PT009H.grib2 2026-04-14 16:03 1.1M
20260414T12Z_MSC_GDPS_WindU_IsbL-0600_LatLon0.15_PT009H.grib2 2026-04-14 16:03 1.1M
20260414T12Z_MSC_GDPS_WindU_IsbL-0650_LatLon0.15_PT009H.grib2 2026-04-14 16:03 1.2M
20260414T12Z_MSC_GDPS_WindU_IsbL-0700_LatLon0.15_PT009H.grib2 2026-04-14 16:03 1.2M
20260414T12Z_MSC_GDPS_WindU_IsbL-0750_LatLon0.15_PT009H.grib2 2026-04-14 16:03 1.3M
20260414T12Z_MSC_GDPS_WindU_IsbL-0800_LatLon0.15_PT009H.grib2 2026-04-14 16:03 1.4M
20260414T12Z_MSC_GDPS_WindU_IsbL-0850_LatLon0.15_PT009H.grib2 2026-04-14 16:03 1.4M
20260414T12Z_MSC_GDPS_WindU_IsbL-0875_LatLon0.15_PT009H.grib2 2026-04-14 16:03 1.5M
20260414T12Z_MSC_GDPS_WindU_IsbL-0900_LatLon0.15_PT009H.grib2 2026-04-14 16:03 1.5M
20260414T12Z_MSC_GDPS_WindU_IsbL-0925_LatLon0.15_PT009H.grib2 2026-04-14 16:03 1.5M
20260414T12Z_MSC_GDPS_WindU_IsbL-0950_LatLon0.15_PT009H.grib2 2026-04-14 16:03 1.4M
20260414T12Z_MSC_GDPS_WindU_IsbL-0970_LatLon0.15_PT009H.grib2 2026-04-14 16:03 1.4M
20260414T12Z_MSC_GDPS_WindU_IsbL-0985_LatLon0.15_PT009H.grib2 2026-04-14 16:03 1.4M
20260414T12Z_MSC_GDPS_WindU_IsbL-1000_LatLon0.15_PT009H.grib2 2026-04-14 16:03 1.4M
20260414T12Z_MSC_GDPS_WindU_IsbL-1015_LatLon0.15_PT009H.grib2 2026-04-14 16:03 1.4M
20260414T12Z_MSC_GDPS_WindV_AGL-10m_LatLon0.15_PT009H.grib2 2026-04-14 16:03 1.3M
20260414T12Z_MSC_GDPS_WindV_AGL-120m_LatLon0.15_PT009H.grib2 2026-04-14 16:03 1.0M
20260414T12Z_MSC_GDPS_WindV_AGL-40m_LatLon0.15_PT009H.grib2 2026-04-14 16:03 1.0M
20260414T12Z_MSC_GDPS_WindV_AGL-80m_LatLon0.15_PT009H.grib2 2026-04-14 16:03 1.0M
20260414T12Z_MSC_GDPS_WindV_IsbL-0001_LatLon0.15_PT009H.grib2 2026-04-14 16:03 546K
20260414T12Z_MSC_GDPS_WindV_IsbL-0005_LatLon0.15_PT009H.grib2 2026-04-14 16:03 605K
20260414T12Z_MSC_GDPS_WindV_IsbL-0010_LatLon0.15_PT009H.grib2 2026-04-14 16:03 630K
20260414T12Z_MSC_GDPS_WindV_IsbL-0020_LatLon0.15_PT009H.grib2 2026-04-14 16:03 860K
20260414T12Z_MSC_GDPS_WindV_IsbL-0030_LatLon0.15_PT009H.grib2 2026-04-14 16:03 857K
20260414T12Z_MSC_GDPS_WindV_IsbL-0050_LatLon0.15_PT009H.grib2 2026-04-14 16:03 1.0M
20260414T12Z_MSC_GDPS_WindV_IsbL-0100_LatLon0.15_PT009H.grib2 2026-04-14 16:03 1.1M
20260414T12Z_MSC_GDPS_WindV_IsbL-0150_LatLon0.15_PT009H.grib2 2026-04-14 16:03 1.0M
20260414T12Z_MSC_GDPS_WindV_IsbL-0175_LatLon0.15_PT009H.grib2 2026-04-14 16:03 1.0M
20260414T12Z_MSC_GDPS_WindV_IsbL-0200_LatLon0.15_PT009H.grib2 2026-04-14 16:03 839K
20260414T12Z_MSC_GDPS_WindV_IsbL-0225_LatLon0.15_PT009H.grib2 2026-04-14 16:03 849K
20260414T12Z_MSC_GDPS_WindV_IsbL-0250_LatLon0.15_PT009H.grib2 2026-04-14 16:03 851K
20260414T12Z_MSC_GDPS_WindV_IsbL-0275_LatLon0.15_PT009H.grib2 2026-04-14 16:03 937K
20260414T12Z_MSC_GDPS_WindV_IsbL-0300_LatLon0.15_PT009H.grib2 2026-04-14 16:03 928K
20260414T12Z_MSC_GDPS_WindV_IsbL-0350_LatLon0.15_PT009H.grib2 2026-04-14 16:03 944K
20260414T12Z_MSC_GDPS_WindV_IsbL-0400_LatLon0.15_PT009H.grib2 2026-04-14 16:03 885K
20260414T12Z_MSC_GDPS_WindV_IsbL-0450_LatLon0.15_PT009H.grib2 2026-04-14 16:03 887K
20260414T12Z_MSC_GDPS_WindV_IsbL-0500_LatLon0.15_PT009H.grib2 2026-04-14 16:03 1.1M
20260414T12Z_MSC_GDPS_WindV_IsbL-0550_LatLon0.15_PT009H.grib2 2026-04-14 16:03 1.1M
20260414T12Z_MSC_GDPS_WindV_IsbL-0600_LatLon0.15_PT009H.grib2 2026-04-14 16:03 1.1M
20260414T12Z_MSC_GDPS_WindV_IsbL-0650_LatLon0.15_PT009H.grib2 2026-04-14 16:03 1.2M
20260414T12Z_MSC_GDPS_WindV_IsbL-0700_LatLon0.15_PT009H.grib2 2026-04-14 16:03 1.2M
20260414T12Z_MSC_GDPS_WindV_IsbL-0750_LatLon0.15_PT009H.grib2 2026-04-14 16:03 1.3M
20260414T12Z_MSC_GDPS_WindV_IsbL-0800_LatLon0.15_PT009H.grib2 2026-04-14 16:03 1.3M
20260414T12Z_MSC_GDPS_WindV_IsbL-0850_LatLon0.15_PT009H.grib2 2026-04-14 16:03 1.4M
20260414T12Z_MSC_GDPS_WindV_IsbL-0875_LatLon0.15_PT009H.grib2 2026-04-14 16:03 1.4M
20260414T12Z_MSC_GDPS_WindV_IsbL-0900_LatLon0.15_PT009H.grib2 2026-04-14 16:03 1.5M
20260414T12Z_MSC_GDPS_WindV_IsbL-0925_LatLon0.15_PT009H.grib2 2026-04-14 16:03 1.5M
20260414T12Z_MSC_GDPS_WindV_IsbL-0950_LatLon0.15_PT009H.grib2 2026-04-14 16:03 1.4M
20260414T12Z_MSC_GDPS_WindV_IsbL-0970_LatLon0.15_PT009H.grib2 2026-04-14 16:03 1.4M
20260414T12Z_MSC_GDPS_WindV_IsbL-0985_LatLon0.15_PT009H.grib2 2026-04-14 16:03 1.4M
20260414T12Z_MSC_GDPS_WindV_IsbL-1000_LatLon0.15_PT009H.grib2 2026-04-14 16:03 1.4M
20260414T12Z_MSC_GDPS_WindV_IsbL-1015_LatLon0.15_PT009H.grib2 2026-04-14 16:03 1.4M